User: anonymous
Location: Dover
(39.1580°N, 75.5250°W)
Time: 04:25:11
(UTC-04:00)
Language:

SeaSat 1 - Orbit

View from above orbital plane
View from above orbital plane
View from above satellite
View from above satellite

Ground track
Ground track

The orbit data is extracted from the following two-line orbital elements,

1 10967U 78064A   14274.44256541  .00000430  00000-0  16869-3 0  4048
2 10967 107.9913 032.7826 0002056 246.0999 154.5065 14.43090482903806
Epoch (UTC): 01 October 2014 10:37:17
Eccentricity: 0.0002056
inclination: 107.9913°
perigee height: 747 km
apogee height: 750 km
right ascension of ascending node: 32.7826°
argument of perigee: 246.0999°
revolutions per day: 14.43090482
mean anomaly at epoch: 154.5065°
orbit number at epoch: 90380

The dashed part of the orbit path shows where the satellite is in the earth's shadow,  

DLR